This is the latest recevied weather packets stored in our database for station/object IZ1MEU-13. If no packets are shown the sender has not sent any weather packets the latest 10 day(s).
| Time | Temp. | Humidity | Pressure | Rain* | Wind** | Luminosity | Snow |
|---|---|---|---|---|---|---|---|
| 1778144460 | 13.89° C | 60% | 1016.6 hPa | - | - | - | - |
| 1778143256 | 13.89° C | 60% | 1016.3 hPa | - | - | - | - |
| 1778142052 | 13.33° C | 62% | 1016.3 hPa | - | - | - | - |
| 1778140848 | 12.78° C | 64% | 1016.1 hPa | - | - | - | - |
| 1778139644 | 11.67° C | 65% | 1016 hPa | - | - | - | - |
| 1778138439 | 11.11° C | 67% | 1016 hPa | - | - | - | - |
| 1778137235 | 11.11° C | 66% | 1015.8 hPa | - | - | - | - |
| 1778136031 | 10.56° C | 67% | 1015.5 hPa | - | - | - | - |
| 1778134827 | 11.11° C | 66% | 1015.5 hPa | - | - | - | - |
| 1778133623 | 11.11° C | 66% | 1015.3 hPa | - | - | - | - |
| 1778132418 | 11.11° C | 66% | 1015 hPa | - | - | - | - |
| 1778131214 | 11.11° C | 66% | 1014.6 hPa | - | - | - | - |
| 1778130009 | 11.11° C | 66% | 1014.4 hPa | - | - | - | - |
| 1778128805 | 11.11° C | 65% | 1014.3 hPa | - | - | - | - |
| 1778127600 | 11.11° C | 65% | 1014.2 hPa | - | - | - | - |
| 1778126396 | 11.11° C | 65% | 1014.1 hPa | - | - | - | - |
| 1778125192 | 11.11° C | 65% | 1014.1 hPa | - | - | - | - |
| 1778123987 | 11.11° C | 65% | 1013.9 hPa | - | - | - | - |
| 1778122783 | 11.11° C | 65% | 1013.9 hPa | - | - | - | - |
| 1778121578 | 11.11° C | 65% | 1013.9 hPa | - | - | - | - |
| 1778120374 | 11.11° C | 65% | 1013.9 hPa | - | - | - | - |
| 1778119169 | 11.11° C | 65% | 1013.9 hPa | - | - | - | - |
| 1778117965 | 11.67° C | 65% | 1013.5 hPa | - | - | - | - |
| 1778116761 | 11.67° C | 65% | 1013.4 hPa | - | - | - | - |
| 1778115556 | 11.11° C | 65% | 1013.3 hPa | - | - | - | - |
* Rain since midnight (hover to see other rain measurements)
** Current wind speed in m/s (hover to see current wind gust speed)